KD7KCN-5 Weather Reports


Display with metric or nautical units.
time (UTC)temp
F
wind
direction
speed
MPH
gust
MPH
rain 1hr
in
rain 24hr
in
rain mn
in
humidity
%
barometer
mb
20260508030140 69 0 0.0 4.0 0.00 0.00 0.00 18 1014.0
20260508025140 70 0 0.0 4.0 0.00 0.00 0.00 18 1013.9
20260508024140 72 61 3.0 11.0 0.00 0.00 0.00 18 1013.8
20260508023140 72 245 8.0 14.0 0.00 0.00 0.00 17 1013.6
20260508022140 72 253 8.0 14.0 0.00 0.00 0.00 17 1013.5
20260508021142 73 249 9.0 14.0 0.00 0.00 0.00 17 1013.5
20260508020140 73 252 8.0 13.0 0.00 0.00 0.00 17 1013.4
20260508015140 74 337 6.0 11.0 0.00 0.00 0.00 17 1013.4
20260508014140 76 334 4.0 9.0 0.00 0.00 0.00 16 1013.4
20260508013140 77 0 0.0 7.0 0.00 0.00 0.00 15 1013.4
20260508012140 78 0 0.0 10.0 0.00 0.00 0.00 16 1013.4
20260508011140 79 337 4.0 14.0 0.00 0.00 0.00 15 1013.4
20260508010140 80 344 2.0 6.0 0.00 0.00 0.00 15 1013.4
20260508005140 79 346 1.0 8.0 0.00 0.00 0.00 15 1013.3
20260508004141 79 6 3.0 14.0 0.00 0.00 0.00 15 1013.4
20260508002140 80 198 1.0 10.0 0.00 0.00 0.00 14 1013.4
20260508001140 80 342 3.0 17.0 0.00 0.00 0.00 14 1013.5
20260508000140 80 333 4.0 11.0 0.00 0.00 0.00 16 1013.6
20260507235141 80 0 0.0 5.0 0.00 0.00 0.00 15 1013.7
20260507234141 80 0 0.0 8.0 0.00 0.00 0.00 15 1013.7
20260507233141 79 333 5.0 19.0 0.00 0.00 0.00 16 1013.8
20260507232140 81 220 3.0 13.0 0.00 0.00 0.00 14 1013.8
20260507231140 80 0 0.0 14.0 0.00 0.00 0.00 16 1013.8
20260507230140 80 1 2.0 9.0 0.00 0.00 0.00 15 1013.9
20260507225141 80 334 2.0 13.0 0.00 0.00 0.00 16 1014.1
20260507224140 78 233 5.0 17.0 0.00 0.00 0.00 15 1014.1
20260507223141 77 91 3.0 15.0 0.00 0.00 0.00 17 1014.2
20260507222141 77 103 9.0 20.0 0.00 0.00 0.00 17 1014.3
20260507221141 77 118 16.0 22.0 0.00 0.00 0.00 17 1014.4
20260507215144 77 127 8.0 19.0 0.00 0.00 0.00 16 1015.0
20260507214142 76 197 16.0 25.0 0.00 0.00 0.00 16 1015.0
20260507213141 76 160 8.0 22.0 0.00 0.00 0.00 18 1015.2
20260507212141 75 160 18.0 26.0 0.00 0.00 0.00 17 1015.3
20260507211141 75 148 15.0 19.0 0.00 0.00 0.00 17 1015.6
20260507205141 74 139 13.0 26.0 0.00 0.00 0.00 17 1015.9
20260507204141 73 145 12.0 24.0 0.00 0.00 0.00 18 1016.0
20260507203141 74 136 9.0 17.0 0.00 0.00 0.00 17 1016.3
20260507202141 76 203 12.0 22.0 0.00 0.00 0.00 18 1016.4
20260507201141 75 127 12.0 24.0 0.00 0.00 0.00 16 1016.3
20260507200142 75 135 9.0 16.0 0.00 0.00 0.00 17 1016.6
20260507195141 74 135 18.0 24.0 0.00 0.00 0.00 18 1016.8
20260507194146 73 128 9.0 27.0 0.00 0.00 0.00 18 1017.1
20260507193141 74 144 12.0 20.0 0.00 0.00 0.00 17 1016.4
20260507192141 73 207 10.0 25.0 0.00 0.00 0.00 18 1016.8
20260507191141 73 154 8.0 16.0 0.00 0.00 0.00 18 1016.9
20260507190141 73 154 13.0 22.0 0.00 0.00 0.00 17 1017.1
20260507185141 74 114 11.0 22.0 0.00 0.00 0.00 19 1017.0
20260507184141 73 139 14.0 26.0 0.00 0.00 0.00 17 1017.1
20260507182141 72 115 8.0 20.0 0.00 0.00 0.00 18 1017.5
20260507181141 73 125 7.0 13.0 0.00 0.00 0.00 18 1017.7
20260507180142 72 113 6.0 16.0 0.00 0.00 0.00 19 1017.9
20260507175141 72 149 7.0 17.0 0.00 0.00 0.00 17 1018.0
20260507174141 73 103 5.0 11.0 0.00 0.00 0.00 18 1018.2
20260507173141 73 95 7.0 11.0 0.00 0.00 0.00 17 1018.2
20260507172141 73 157 7.0 14.0 0.00 0.00 0.00 18 1018.4
20260507171141 71 119 4.0 16.0 0.00 0.00 0.00 19 1018.4
20260507170141 70 138 1.0 18.0 0.00 0.00 0.00 18 1018.4
20260507165141 71 137 4.0 15.0 0.00 0.00 0.00 19 1018.5
20260507163141 70 109 2.0 12.0 0.00 0.00 0.00 19 1018.8
20260507162141 70 136 1.0 11.0 0.00 0.00 0.00 19 1018.9
20260507161141 70 116 8.0 12.0 0.00 0.00 0.00 20 1019.0
20260507160141 69 95 2.0 10.0 0.00 0.00 0.00 20 1019.3
20260507155141 68 108 3.0 10.0 0.00 0.00 0.00 19 1019.4
20260507154141 68 98 2.0 8.0 0.00 0.00 0.00 19 1019.4
20260507153141 68 98 3.0 7.0 0.00 0.00 0.00 19 1019.7
20260507152141 66 101 1.0 8.0 0.00 0.00 0.00 21 1019.8
20260507151141 66 116 3.0 8.0 0.00 0.00 0.00 19 1019.9
20260507150143 66 0 0.0 3.0 0.00 0.00 0.00 19 1020.0
20260507145141 65 0 0.0 1.0 0.00 0.00 0.00 21 1020.1
20260507144141 64 0 0.0 0.0 0.00 0.00 0.00 20 1019.4
20260507143142 63 0 0.0 1.0 0.00 0.00 0.00 22 1019.3
20260507142143 63 0 0.0 1.0 0.00 0.00 0.00 22 1019.2
20260507141141 62 0 0.0 0.0 0.00 0.00 0.00 24 1019.2
20260507140142 62 0 0.0 1.0 0.00 0.00 0.00 24 1019.4
20260507135142 61 0 0.0 1.0 0.00 0.00 0.00 24 1019.2
20260507134142 60 0 0.0 0.0 0.00 0.00 0.00 25 1019.2
20260507133143 58 0 0.0 1.0 0.00 0.00 0.00 25 1019.2
20260507132142 57 0 0.0 1.0 0.00 0.00 0.00 26 1019.3
20260507131142 56 0 0.0 4.0 0.00 0.00 0.00 25 1019.1
20260507125145 53 0 0.0 5.0 0.00 0.00 0.00 24 1019.2
20260507124144 53 344 2.0 9.0 0.00 0.00 0.00 25 1019.1
20260507123142 53 332 5.0 9.0 0.00 0.00 0.00 24 1019.1
20260507122142 53 337 5.0 8.0 0.00 0.00 0.00 25 1019.0
20260507121142 53 350 4.0 11.0 0.00 0.00 0.00 25 1019.2
20260507120142 53 332 8.0 11.0 0.00 0.00 0.00 25 1018.9
20260507115142 54 344 7.0 10.0 0.00 0.00 0.00 24 1019.1
20260507114142 54 348 7.0 10.0 0.00 0.00 0.00 24 1019.1
20260507113143 55 0 0.0 3.0 0.00 0.00 0.00 23 1019.1
20260507112142 55 336 2.0 8.0 0.00 0.00 0.00 24 1019.2
20260507111142 55 337 3.0 8.0 0.00 0.00 0.00 23 1019.2
20260507110142 55 332 2.0 8.0 0.00 0.00 0.00 22 1019.2
20260507105142 55 335 5.0 14.0 0.00 0.00 0.00 23 1019.1
20260507104142 55 334 7.0 14.0 0.00 0.00 0.00 23 1019.1
20260507103142 55 334 8.0 15.0 0.00 0.00 0.00 22 1019.0
20260507102143 55 333 8.0 14.0 0.00 0.00 0.00 21 1019.0
20260507100143 53 329 7.0 14.0 0.00 0.00 0.00 23 1019.1
20260507095143 53 329 10.0 14.0 0.00 0.00 0.00 24 1019.1
20260507094142 53 333 10.0 13.0 0.00 0.00 0.00 23 1019.1
20260507093144 55 339 7.0 13.0 0.00 0.00 0.00 22 1019.1
20260507092142 55 329 7.0 15.0 0.00 0.00 0.00 21 1019.1
20260507091142 55 327 9.0 14.0 0.00 0.00 0.00 21 1019.3
20260507090142 54 328 5.0 13.0 0.00 0.00 0.00 22 1019.3
20260507085142 54 330 4.0 15.0 0.00 0.00 0.00 21 1019.3
20260507084142 54 333 8.0 16.0 0.00 0.00 0.00 23 1019.4
20260507083143 55 334 7.0 14.0 0.00 0.00 0.00 22 1019.3
20260507082143 55 324 8.0 13.0 0.00 0.00 0.00 22 1019.4
20260507080144 54 332 5.0 15.0 0.00 0.00 0.00 24 1019.5
20260507075142 54 332 9.0 17.0 0.00 0.00 0.00 24 1019.6
20260507074142 55 336 10.0 14.0 0.00 0.00 0.00 23 1019.6
20260507073144 56 335 11.0 14.0 0.00 0.00 0.00 22 1019.7
20260507072143 57 331 7.0 12.0 0.00 0.00 0.00 22 1019.8
20260507071142 56 241 9.0 18.0 0.00 0.00 0.00 22 1019.8
20260507070142 56 250 10.0 15.0 0.00 0.00 0.00 22 1019.7
20260507065144 56 261 10.0 15.0 0.00 0.00 0.00 22 1019.7
20260507064144 57 267 11.0 16.0 0.00 0.00 0.00 22 1019.8
20260507063143 56 263 11.0 17.0 0.00 0.00 0.00 22 1019.7
20260507061143 56 338 10.0 14.0 0.00 0.00 0.00 22 1019.8
20260507060143 57 325 8.0 17.0 0.00 0.00 0.00 22 1019.9
20260507055143 57 287 11.0 16.0 0.00 0.00 0.00 22 1019.8
20260507054143 56 263 11.0 15.0 0.00 0.00 0.00 22 1019.9
20260507053143 56 266 10.0 15.0 0.00 0.00 0.00 23 1019.9
20260507052143 56 348 6.0 14.0 0.00 0.00 0.00 23 1019.7
20260507051143 56 314 6.0 14.0 0.00 0.00 0.00 23 1019.7
20260507050143 57 340 5.0 16.0 0.00 0.00 0.00 22 1019.5
20260507045143 57 343 13.0 19.0 0.00 0.00 0.00 22 1019.3
20260507044143 57 356 12.0 18.0 0.00 0.00 0.00 22 1019.2
20260507043143 58 13 16.0 26.0 0.00 0.00 0.00 22 1019.1
20260507042143 58 15 13.0 27.0 0.00 0.00 0.00 22 1018.8
20260507041143 58 357 17.0 26.0 0.00 0.00 0.00 22 1018.8
20260507040144 58 344 13.0 25.0 0.00 0.00 0.00 23 1018.8
20260507035143 58 342 9.0 20.0 0.00 0.00 0.00 24 1018.7
20260507034143 59 341 8.0 15.0 0.00 0.00 0.00 24 1018.5
20260507033143 59 344 9.0 13.0 0.00 0.00 0.00 25 1018.5
20260507032143 60 337 6.0 15.0 0.00 0.00 0.00 24 1018.3
20260507031143 60 343 6.0 13.0 0.00 0.00 0.00 24 1018.2